Location: Keppel Henge
(44.7900°N, 80.9447°W)
Time: 21:25:13
(UTC-04:00)

Vanguard 3 - Visible Passes

Search period start: 17 July 2018 00:00
Search period end: 27 July 2018 00:00
Orbit: 508 x 3264 km, 33.3° (Epoch: 17 July)

Date Brightness Start Highest point End Pass type
(mag) Time Alt. Az. Time Alt. Az. Time Alt. Az.
17 Jul 9.0 00:10:24 10° WSW 00:12:32 15° SW 00:12:32 15° SW visible
17 Jul 8.3 22:54:33 10° WSW 23:00:59 27° SSW 23:02:49 23° SSE visible
18 Jul 8.7 21:38:33 10° WSW 21:47:28 35° S 21:52:56 10° ESE visible
18 Jul 8.9 23:54:02 10° WSW 23:57:39 17° SW 23:57:39 17° SW visible
19 Jul 8.5 22:37:46 10° WSW 22:45:03 28° SSW 22:47:54 20° SSE visible
20 Jul 9.0 23:37:34 10° WSW 23:42:14 17° SSW 23:42:41 17° SSW visible
21 Jul 8.8 22:20:54 10° WSW 22:29:03 29° SSW 22:32:54 17° SSE visible
22 Jul 9.1 23:21:00 10° WSW 23:26:10 18° SW 23:27:41 16° SSW visible
23 Jul 9.1 22:03:55 10° W 22:12:56 30° SSW 22:17:54 14° SSE visible
24 Jul 9.3 23:04:21 10° WSW 23:09:59 17° SW 23:12:41 14° SSW visible
25 Jul 9.4 21:46:50 10° W 21:56:43 30° SSW 22:02:54 10° SSE visible
26 Jul 9.5 22:47:37 10° WSW 22:53:43 17° SW 22:57:41 12° S visible
